Location: Burleson Fire Department Station 2
(32.5391°N, 97.3075°W)
Time: 00:54:24
(UTC+00:00)

NOAA 15 - Pass Details

Date: 16 December 2025
Orbit: 793 x 810 km, 98.5° (Epoch: 20 January)

Event Time Altitude Azimuth Distance (km) Brightness Sun altitude
Rises 01:19:52 0° 175° (S) 3,311 7.9 -23.4°
Reaches altitude 10° 01:22:14 10° 179° (S) 2,382 7.2 -23.9°
Maximum altitude 01:27:26 60° 259° (W) 922 5.1 -25.0°
Drops below altitude 10° 01:32:39 10° 339° (NNW) 2,388 7.1 -26.0°
Sets 01:35:01 0° 343° (NNW) 3,320 7.9 -26.5°
